User: anonymous   Login
Location: Ciserano
(45.5833°N, 9.6000°E)
Time: 18:25:04
(UTC+00:00)
Language:

FALCON 9 DEB - Orbit

View from above orbital plane
View from above orbital plane
View from above satellite
View from above satellite

Ground track
Ground track

The orbit data is extracted from the following two-line orbital elements,

1 46085U 20055BL  21212.90852189  .00015650  00000-0  15472-3 0  9994
2 46085  53.0108 339.5773 0010404  37.0461 323.1270 15.66053080 60625
Epoch (UTC): 31 July 2021 21:48:16
Eccentricity: 0.0010404
inclination: 53.0108°
perigee height: 363 km
apogee height: 377 km
right ascension of ascending node: 339.5773°
argument of perigee: 37.0461°
revolutions per day: 15.66053080
mean anomaly at epoch: 323.1270°
orbit number at epoch: 6062

The dashed part of the orbit path shows where the satellite is in the earth's shadow,  

DLR